| time (UTC) | temp C | wind direction | speed KPH | gust KPH | rain 1hr cm | rain 24hr cm | rain mn cm | humidity % | barometer mb |
| 20260504202314 | 18 | 251 | 20.9 | 35.4 | 0.00 | 0.00 | 0.00 | 34 | 1007.4 |
| 20260504201810 | 18 | 265 | 40.2 | 49.9 | 0.00 | 0.00 | 0.00 | 34 | 1007.2 |
| 20260504201308 | 18 | 251 | 38.6 | 51.5 | 0.00 | 0.00 | 0.00 | 33 | 1007.3 |
| 20260504200805 | 18 | 256 | 24.1 | 35.4 | 0.00 | 0.00 | 0.00 | 34 | 1007.4 |
| 20260504200301 | 18 | 259 | 27.4 | 48.3 | 0.00 | 0.00 | 0.00 | 34 | 1007.3 |
| 20260504195757 | 18 | 240 | 48.3 | 53.1 | 0.00 | 0.00 | 0.00 | 34 | 1007.2 |
| 20260504195253 | 18 | 260 | 32.2 | 41.8 | 0.00 | 0.00 | 0.00 | 34 | 1007.4 |
| 20260504194751 | 18 | 259 | 17.7 | 48.3 | 0.00 | 0.00 | 0.00 | 34 | 1007.4 |
| 20260504194247 | 18 | 249 | 22.5 | 49.9 | 0.00 | 0.00 | 0.00 | 33 | 1007.4 |
| 20260504193743 | 18 | 257 | 17.7 | 46.7 | 0.00 | 0.00 | 0.00 | 34 | 1007.6 |
| 20260504193241 | 18 | 257 | 49.9 | 49.9 | 0.00 | 0.00 | 0.00 | 33 | 1007.6 |
| 20260504192739 | 18 | 253 | 29.0 | 51.5 | 0.00 | 0.00 | 0.00 | 34 | 1007.5 |
| 20260504192237 | 18 | 260 | 27.4 | 46.7 | 0.00 | 0.00 | 0.00 | 35 | 1007.3 |
| 20260504191735 | 18 | 250 | 30.6 | 46.7 | 0.00 | 0.00 | 0.00 | 35 | 1007.3 |
| 20260504191232 | 18 | 257 | 17.7 | 24.1 | 0.00 | 0.00 | 0.00 | 35 | 1007.6 |
| 20260504190727 | 17 | 241 | 27.4 | 45.1 | 0.00 | 0.00 | 0.00 | 36 | 1007.7 |
| 20260504190224 | 17 | 242 | 24.1 | 51.5 | 0.00 | 0.00 | 0.00 | 36 | 1007.8 |
| 20260504185720 | 18 | 240 | 25.7 | 41.8 | 0.00 | 0.00 | 0.00 | 36 | 1007.7 |
| 20260504185217 | 17 | 262 | 27.4 | 41.8 | 0.00 | 0.00 | 0.00 | 36 | 1007.9 |
| 20260504184713 | 17 | 246 | 29.0 | 51.5 | 0.00 | 0.00 | 0.00 | 36 | 1007.9 |
| 20260504184209 | 17 | 227 | 30.6 | 33.8 | 0.00 | 0.00 | 0.00 | 36 | 1007.7 |
| 20260504183705 | 17 | 269 | 29.0 | 41.8 | 0.00 | 0.00 | 0.00 | 36 | 1007.7 |
| 20260504183202 | 17 | 237 | 41.8 | 49.9 | 0.00 | 0.00 | 0.00 | 37 | 1007.8 |
| 20260504182700 | 17 | 239 | 40.2 | 53.1 | 0.00 | 0.00 | 0.00 | 37 | 1007.9 |
| 20260504182157 | 16 | 262 | 30.6 | 41.8 | 0.00 | 0.00 | 0.00 | 38 | 1007.9 |
| 20260504181655 | 16 | 241 | 27.4 | 37.0 | 0.00 | 0.00 | 0.00 | 38 | 1008.0 |
| 20260504181152 | 16 | 229 | 33.8 | 40.2 | 0.00 | 0.00 | 0.00 | 38 | 1008.1 |
| 20260504180651 | 16 | 265 | 37.0 | 45.1 | 0.00 | 0.00 | 0.00 | 37 | 1008.2 |
| 20260504180149 | 16 | 272 | 16.1 | 37.0 | 0.00 | 0.00 | 0.00 | 39 | 1008.2 |
| 20260504175646 | 16 | 259 | 20.9 | 32.2 | 0.00 | 0.00 | 0.00 | 39 | 1008.4 |
| 20260504175143 | 16 | 249 | 38.6 | 41.8 | 0.00 | 0.00 | 0.00 | 38 | 1008.0 |
| 20260504174641 | 16 | 245 | 37.0 | 48.3 | 0.00 | 0.00 | 0.00 | 38 | 1008.2 |
| 20260504174137 | 16 | 236 | 22.5 | 33.8 | 0.00 | 0.00 | 0.00 | 38 | 1008.2 |
| 20260504173635 | 16 | 238 | 22.5 | 37.0 | 0.00 | 0.00 | 0.00 | 38 | 1008.1 |
| 20260504173132 | 16 | 281 | 33.8 | 49.9 | 0.00 | 0.00 | 0.00 | 38 | 1008.1 |
| 20260504172629 | 16 | 243 | 27.4 | 37.0 | 0.00 | 0.00 | 0.00 | 39 | 1008.1 |
| 20260504172125 | 16 | 235 | 38.6 | 53.1 | 0.00 | 0.00 | 0.00 | 39 | 1008.0 |
| 20260504171621 | 16 | 233 | 35.4 | 48.3 | 0.00 | 0.00 | 0.00 | 39 | 1008.0 |
| 20260504171119 | 16 | 239 | 46.7 | 51.5 | 0.00 | 0.00 | 0.00 | 38 | 1008.2 |
| 20260504170615 | 16 | 247 | 20.9 | 45.1 | 0.00 | 0.00 | 0.00 | 39 | 1008.0 |
| 20260504170113 | 16 | 249 | 24.1 | 54.7 | 0.00 | 0.00 | 0.00 | 39 | 1008.2 |
| 20260504150958 | 15 | 244 | 30.6 | 49.9 | 0.00 | 0.00 | 0.00 | 38 | 1008.6 |
| 20260504150455 | 15 | 233 | 33.8 | 61.2 | 0.00 | 0.00 | 0.00 | 38 | 1008.8 |
| 20260504140922 | 13 | 258 | 41.8 | 46.7 | 0.00 | 0.00 | 0.00 | 41 | 1008.7 |
| 20260504140418 | 13 | 235 | 24.1 | 32.2 | 0.00 | 0.00 | 0.00 | 43 | 1009.1 |
| 20260504130343 | 11 | 215 | 11.3 | 25.7 | 0.00 | 0.00 | 0.00 | 55 | 1009.7 |
| 20260504120306 | 8 | 239 | 6.4 | 12.9 | 0.00 | 0.00 | 0.00 | 64 | 1010.4 |
| 20260504110230 | 6 | 184 | 8.0 | 16.1 | 0.00 | 0.00 | 0.00 | 68 | 1010.8 |
| 20260504100154 | 6 | 175 | 6.4 | 8.0 | 0.00 | 0.00 | 0.00 | 65 | 1010.4 |
| 20260504090116 | 5 | 192 | 8.0 | 12.9 | 0.00 | 0.00 | 0.00 | 63 | 1010.6 |
| 20260504081546 | 5 | 179 | 4.8 | 9.7 | 0.00 | 0.00 | 0.00 | 61 | 1010.4 |
| 20260504081042 | 5 | 203 | 4.8 | 6.4 | 0.00 | 0.00 | 0.00 | 60 | 1010.7 |
| 20260504080539 | 5 | 191 | 6.4 | 8.0 | 0.00 | 0.00 | 0.00 | 61 | 1010.8 |
| 20260504050352 | 5 | 227 | 6.4 | 6.4 | 0.00 | 0.00 | 0.00 | 55 | 1010.5 |
| 20260504045849 | 4 | 267 | 6.4 | 6.4 | 0.00 | 0.00 | 0.00 | 56 | 1010.6 |
| 20260504045350 | 4 | 239 | 3.2 | 8.0 | 0.00 | 0.00 | 0.00 | 56 | 1010.4 |
| 20260504044847 | 5 | 249 | 0.0 | 6.4 | 0.00 | 0.00 | 0.00 | 55 | 1010.3 |
| 20260504044344 | 5 | 253 | 3.2 | 4.8 | 0.00 | 0.00 | 0.00 | 53 | 1010.7 |
| 20260504043841 | 5 | 222 | 3.2 | 8.0 | 0.00 | 0.00 | 0.00 | 50 | 1010.4 |
| 20260504043338 | 5 | 242 | 4.8 | 11.3 | 0.00 | 0.00 | 0.00 | 50 | 1010.5 |
| 20260504042835 | 5 | 231 | 11.3 | 12.9 | 0.00 | 0.00 | 0.00 | 51 | 1010.4 |
| 20260504042332 | 5 | 232 | 14.5 | 14.5 | 0.00 | 0.00 | 0.00 | 50 | 1010.5 |
| 20260504041828 | 5 | 234 | 11.3 | 14.5 | 0.00 | 0.00 | 0.00 | 50 | 1010.4 |
| 20260504041324 | 5 | 242 | 9.7 | 11.3 | 0.00 | 0.00 | 0.00 | 51 | 1010.3 |
| 20260504040821 | 5 | 233 | 8.0 | 14.5 | 0.00 | 0.00 | 0.00 | 50 | 1010.3 |
| 20260504040318 | 5 | 228 | 11.3 | 12.9 | 0.00 | 0.00 | 0.00 | 50 | 1010.4 |
| 20260504035814 | 5 | 219 | 11.3 | 12.9 | 0.00 | 0.00 | 0.00 | 51 | 1010.4 |
| 20260504035312 | 5 | 225 | 9.7 | 12.9 | 0.00 | 0.00 | 0.00 | 52 | 1010.1 |
| 20260504034809 | 5 | 223 | 12.9 | 14.5 | 0.00 | 0.00 | 0.00 | 55 | 1010.1 |
| 20260504034306 | 3 | 223 | 11.3 | 14.5 | 0.00 | 0.00 | 0.00 | 59 | 1010.1 |
| 20260504033803 | 4 | 240 | 12.9 | 14.5 | 0.00 | 0.00 | 0.00 | 59 | 1010.1 |
| 20260504033301 | 4 | 252 | 8.0 | 11.3 | 0.00 | 0.00 | 0.00 | 58 | 1010.4 |
| 20260504032757 | 5 | 241 | 9.7 | 11.3 | 0.00 | 0.00 | 0.00 | 56 | 1010.1 |
| 20260504032254 | 5 | 265 | 8.0 | 11.3 | 0.00 | 0.00 | 0.00 | 55 | 1010.1 |
| 20260504031751 | 5 | 253 | 6.4 | 12.9 | 0.00 | 0.00 | 0.00 | 52 | 1010.0 |
| 20260504031249 | 5 | 204 | 8.0 | 9.7 | 0.00 | 0.00 | 0.00 | 51 | 1010.1 |
| 20260504030744 | 5 | 220 | 9.7 | 9.7 | 0.00 | 0.00 | 0.00 | 50 | 1009.9 |
| 20260504030242 | 6 | 241 | 9.7 | 11.3 | 0.00 | 0.00 | 0.00 | 49 | 1010.1 |
| 20260504025738 | 6 | 239 | 12.9 | 14.5 | 0.00 | 0.00 | 0.00 | 50 | 1010.1 |
| 20260504025235 | 5 | 220 | 14.5 | 16.1 | 0.00 | 0.00 | 0.00 | 52 | 1010.3 |
| 20260504024732 | 5 | 225 | 11.3 | 14.5 | 0.00 | 0.00 | 0.00 | 51 | 1010.0 |
| 20260504024229 | 6 | 242 | 12.9 | 12.9 | 0.00 | 0.00 | 0.00 | 51 | 1010.4 |
| 20260504023726 | 6 | 238 | 11.3 | 12.9 | 0.00 | 0.00 | 0.00 | 51 | 1010.3 |
| 20260504023221 | 6 | 258 | 8.0 | 14.5 | 0.00 | 0.00 | 0.00 | 51 | 1010.0 |
| 20260504022718 | 6 | 240 | 14.5 | 14.5 | 0.00 | 0.00 | 0.00 | 52 | 1010.5 |
| 20260504022214 | 6 | 245 | 11.3 | 12.9 | 0.00 | 0.00 | 0.00 | 51 | 1010.5 |
| 20260504021712 | 6 | 247 | 8.0 | 9.7 | 0.00 | 0.00 | 0.00 | 50 | 1010.4 |
| 20260504021209 | 6 | 236 | 8.0 | 11.3 | 0.00 | 0.00 | 0.00 | 49 | 1010.4 |
| 20260504020705 | 6 | 213 | 6.4 | 9.7 | 0.00 | 0.00 | 0.00 | 50 | 1010.3 |
| 20260504020201 | 6 | 223 | 6.4 | 6.4 | 0.00 | 0.00 | 0.00 | 49 | 1010.3 |
| 20260504015658 | 6 | 245 | 8.0 | 8.0 | 0.00 | 0.00 | 0.00 | 48 | 1010.3 |
| 20260504015154 | 6 | 270 | 3.2 | 6.4 | 0.00 | 0.00 | 0.00 | 48 | 1010.0 |
| 20260504014650 | 6 | 267 | 8.0 | 9.7 | 0.00 | 0.00 | 0.00 | 47 | 1010.3 |
| 20260504014147 | 6 | 178 | 3.2 | 3.2 | 0.00 | 0.00 | 0.00 | 47 | 1010.3 |
| 20260504013645 | 7 | 293 | 3.2 | 12.9 | 0.00 | 0.00 | 0.00 | 46 | 1010.4 |
| 20260504013142 | 6 | 176 | 3.2 | 3.2 | 0.00 | 0.00 | 0.00 | 46 | 1010.4 |
| 20260504012639 | 7 | 201 | 6.4 | 6.4 | 0.00 | 0.00 | 0.00 | 46 | 1010.4 |
| 20260504012137 | 6 | 212 | 3.2 | 4.8 | 0.00 | 0.00 | 0.00 | 46 | 1010.4 |
| 20260504011633 | 6 | 242 | 6.4 | 8.0 | 0.00 | 0.00 | 0.00 | 46 | 1010.0 |
| 20260504011130 | 6 | 212 | 6.4 | 8.0 | 0.00 | 0.00 | 0.00 | 47 | 1010.1 |
| 20260504010626 | 6 | 230 | 6.4 | 8.0 | 0.00 | 0.00 | 0.00 | 47 | 1010.3 |
| 20260504010122 | 6 | 237 | 4.8 | 9.7 | 0.00 | 0.00 | 0.00 | 47 | 1010.1 |
| 20260504005619 | 7 | 239 | 8.0 | 11.3 | 0.00 | 0.00 | 0.00 | 47 | 1010.0 |
| 20260504005116 | 7 | 249 | 6.4 | 8.0 | 0.00 | 0.00 | 0.00 | 47 | 1010.3 |
| 20260504004614 | 6 | 244 | 6.4 | 9.7 | 0.00 | 0.00 | 0.00 | 48 | 1009.8 |
| 20260504004111 | 6 | 256 | 9.7 | 12.9 | 0.00 | 0.00 | 0.00 | 48 | 1009.8 |
| 20260504003607 | 6 | 251 | 9.7 | 9.7 | 0.00 | 0.00 | 0.00 | 48 | 1009.8 |
| 20260504003104 | 6 | 260 | 8.0 | 9.7 | 0.00 | 0.00 | 0.00 | 48 | 1009.8 |
| 20260504002601 | 7 | 265 | 4.8 | 8.0 | 0.00 | 0.00 | 0.00 | 47 | 1009.5 |
| 20260504002058 | 7 | 275 | 8.0 | 9.7 | 0.00 | 0.00 | 0.00 | 47 | 1009.6 |
| 20260504001556 | 7 | 274 | 9.7 | 14.5 | 0.00 | 0.00 | 0.00 | 46 | 1009.7 |
| 20260504001051 | 7 | 284 | 11.3 | 16.1 | 0.00 | 0.00 | 0.00 | 46 | 1009.4 |
| 20260504000549 | 7 | 293 | 12.9 | 19.3 | 0.00 | 0.00 | 0.00 | 46 | 1009.5 |
| 20260504000046 | 7 | 290 | 9.7 | 17.7 | 0.00 | 0.00 | 0.00 | 45 | 1009.4 |
| 20260503235544 | 7 | 269 | 14.5 | 17.7 | 0.00 | 0.00 | 0.00 | 45 | 1009.3 |
| 20260503235041 | 7 | 272 | 12.9 | 16.1 | 0.00 | 0.00 | 0.00 | 45 | 1009.3 |
| 20260503234538 | 7 | 284 | 16.1 | 20.9 | 0.00 | 0.00 | 0.00 | 44 | 1009.1 |
| 20260503234037 | 7 | 295 | 14.5 | 25.7 | 0.00 | 0.00 | 0.00 | 43 | 1009.2 |
| 20260503233533 | 7 | 271 | 19.3 | 22.5 | 0.00 | 0.00 | 0.00 | 43 | 1009.1 |
| 20260503233029 | 7 | 289 | 19.3 | 32.2 | 0.00 | 0.00 | 0.00 | 43 | 1009.2 |
| 20260503232526 | 7 | 298 | 22.5 | 32.2 | 0.00 | 0.00 | 0.00 | 43 | 1009.2 |
| 20260503232024 | 7 | 299 | 19.3 | 27.4 | 0.00 | 0.00 | 0.00 | 43 | 1009.1 |
| 20260503231521 | 7 | 292 | 25.7 | 33.8 | 0.00 | 0.00 | 0.00 | 42 | 1009.0 |
| 20260503231018 | 8 | 301 | 29.0 | 41.8 | 0.00 | 0.00 | 0.00 | 42 | 1008.8 |
| 20260503230514 | 8 | 288 | 38.6 | 40.2 | 0.00 | 0.00 | 0.00 | 41 | 1009.0 |
| 20260503230012 | 8 | 296 | 27.4 | 30.6 | 0.00 | 0.00 | 0.00 | 41 | 1008.8 |
| 20260503225509 | 8 | 294 | 12.9 | 37.0 | 0.00 | 0.00 | 0.00 | 42 | 1008.7 |
| 20260503225004 | 8 | 273 | 19.3 | 32.2 | 0.00 | 0.00 | 0.00 | 42 | 1008.8 |
| 20260503224501 | 7 | 324 | 22.5 | 27.4 | 0.00 | 0.00 | 0.00 | 42 | 1009.0 |
| 20260503223959 | 7 | 301 | 24.1 | 37.0 | 0.00 | 0.00 | 0.00 | 42 | 1009.0 |
| 20260503223457 | 8 | 290 | 25.7 | 45.1 | 0.00 | 0.00 | 0.00 | 42 | 1008.6 |
| 20260503222952 | 7 | 308 | 22.5 | 32.2 | 0.00 | 0.00 | 0.00 | 43 | 1008.6 |
| 20260503222451 | 7 | 305 | 17.7 | 17.7 | 0.00 | 0.00 | 0.00 | 43 | 1009.0 |
| 20260503221948 | 7 | 294 | 20.9 | 35.4 | 0.00 | 0.00 | 0.00 | 42 | 1008.6 |
| 20260503221447 | 7 | 311 | 27.4 | 30.6 | 0.00 | 0.00 | 0.00 | 42 | 1008.6 |
| 20260503220943 | 7 | 309 | 19.3 | 37.0 | 0.00 | 0.00 | 0.00 | 42 | 1008.6 |
| 20260503220439 | 8 | 268 | 30.6 | 43.5 | 0.00 | 0.00 | 0.00 | 41 | 1008.3 |
| 20260503215937 | 8 | 316 | 30.6 | 54.7 | 0.00 | 0.00 | 0.00 | 41 | 1008.2 |
| 20260503215433 | 8 | 280 | 30.6 | 33.8 | 0.00 | 0.00 | 0.00 | 42 | 1008.4 |
| 20260503214931 | 8 | 304 | 35.4 | 38.6 | 0.00 | 0.00 | 0.00 | 42 | 1008.5 |
| 20260503214429 | 8 | 278 | 25.7 | 33.8 | 0.00 | 0.00 | 0.00 | 42 | 1008.3 |
| 20260503213926 | 8 | 287 | 41.8 | 43.5 | 0.00 | 0.00 | 0.00 | 41 | 1008.2 |
| 20260503213424 | 8 | 276 | 17.7 | 33.8 | 0.00 | 0.00 | 0.00 | 43 | 1008.5 |
| 20260503212920 | 8 | 288 | 9.7 | 17.7 | 0.00 | 0.00 | 0.00 | 43 | 1008.4 |
| 20260503212418 | 8 | 301 | 30.6 | 43.5 | 0.00 | 0.00 | 0.00 | 42 | 1008.3 |
| 20260503211915 | 8 | 292 | 17.7 | 27.4 | 0.00 | 0.00 | 0.00 | 43 | 1008.5 |
| 20260503211412 | 8 | 286 | 16.1 | 24.1 | 0.00 | 0.00 | 0.00 | 43 | 1008.2 |
| 20260503210907 | 8 | 310 | 40.2 | 41.8 | 0.00 | 0.00 | 0.00 | 43 | 1008.2 |
| 20260503210405 | 8 | 288 | 17.7 | 32.2 | 0.00 | 0.00 | 0.00 | 43 | 1008.3 |
| 20260503205904 | 7 | 316 | 16.1 | 24.1 | 0.00 | 0.00 | 0.00 | 44 | 1008.3 |
| 20260503205402 | 7 | 303 | 16.1 | 33.8 | 0.00 | 0.00 | 0.00 | 45 | 1008.3 |
| 20260503204858 | 7 | 316 | 16.1 | 27.4 | 0.00 | 0.00 | 0.00 | 45 | 1008.1 |
| 20260503204356 | 7 | 350 | 14.5 | 30.6 | 0.00 | 0.00 | 0.00 | 44 | 1008.2 |
| 20260503203853 | 7 | 313 | 27.4 | 40.2 | 0.00 | 0.00 | 0.00 | 43 | 1008.2 |
| 20260503203350 | 8 | 282 | 19.3 | 40.2 | 0.00 | 0.00 | 0.00 | 42 | 1008.1 |
| 20260503202846 | 8 | 278 | 27.4 | 38.6 | 0.00 | 0.00 | 0.00 | 41 | 1007.9 |